Ephrata, WA

1:16 PM PDT on September 22, 2019 (GMT -0700)
Ephrata Municipal

Weather History for KEPH - August, 2019

Change the Weather History Date:

Sunday, August 25, 2019

  Actual Average Record
Temperature  
Mean Temperature 74 °F 71 °F  
Max Temperature 84 °F 85 °F 102 °F (1958)
Min Temperature 63 °F 57 °F 45 °F (1960)
Degree Days  
Heating Degree Days 0 0  
Month to date heating degree days 0 0  
Since 1 June heating degree days 28 68  
Since 1 July heating degree days 0 8  
Cooling Degree Days 9 6  
Month to date cooling degree days 278 221  
Year to date cooling degree days 758 661  
Since 1 June cooling degree days 699 624  
Growing Degree Days 23 (Base 50)    
Moisture  
Dew Point 39 °F    
Average Humidity 30    
Maximum Humidity 44    
Minimum Humidity 15    
Precipitation  
Precipitation 0.00 in 0.00 in 0.30 in (1976)
Month to date precipitation 0.29 0.16  
Year to date precipitation 3.72 4.63  
Sea Level Pressure  
Sea Level Pressure 29.97 in    
Wind  
Wind Speed 10 mph (WNW)    
Max Wind Speed 23 mph    
Max Gust Speed 30 mph    
Visibility 10 miles    
Events      
T = Trace of Precipitation, MM = Missing Value Source: NWS Daily Summary

Daily Weather History Graph

Daily Weather History Graph

Search for Another Location

Airport or City:

Astronomy

Aug. 25, 2019 Rise Set
Actual Time 6:07 AM PDT 7:51 PM PDT
Civil Twilight 5:35 AM PDT 8:24 PM PDT
Nautical Twilight 4:55 AM PDT 9:03 PM PDT
Astronomical Twilight 4:11 AM PDT 9:46 PM PDT
Moon 12:33 AM PDT (8/25) 4:32 PM PDT (8/25)
Length of Visible Light 14h 48m
Length of Day
13h 44m
Waning Crescent, 28% of the Moon is Illuminated
Aug 25
Waning Crescent
Aug 30
New
Sep 5
First Quarter
Sep 13
Full
Sep 21
Last Quarter

Hourly Weather History & Observations

Time (PDT) Temp. Dew Point Humidity Pressure Visibility Wind Dir Wind Speed Gust Speed Precip Events Conditions
12:53 AM 69.1 °F 42.1 °F 38% 29.85 in 10.0 mi West 4.6 mph - N/A   Clear
1:53 AM 66.9 °F 43.0 °F 42% 29.86 in 10.0 mi WSW 3.5 mph - N/A   Clear
2:53 AM 66.9 °F 43.0 °F 42% 29.87 in 10.0 mi SSE 3.5 mph - N/A   Clear
3:53 AM 64.9 °F 43.0 °F 45% 29.89 in 10.0 mi Calm Calm - N/A   Clear
4:53 AM 68.0 °F 41.0 °F 37% 29.89 in 10.0 mi NW 17.3 mph 26.5 mph N/A   Clear
5:53 AM 68.0 °F 41.0 °F 37% 29.91 in 10.0 mi NNW 13.8 mph - N/A   Clear
6:53 AM 66.9 °F 41.0 °F 39% 29.94 in 10.0 mi NNW 9.2 mph - N/A   Clear
7:53 AM 68.0 °F 39.9 °F 36% 29.96 in 10.0 mi Variable 6.9 mph - N/A   Clear
8:53 AM 71.1 °F 39.9 °F 32% 29.97 in 10.0 mi NW 13.8 mph 20.7 mph N/A   Clear
9:53 AM 75.0 °F 37.9 °F 26% 29.99 in 10.0 mi NW 12.7 mph 18.4 mph N/A   Clear
10:53 AM 77.0 °F 37.0 °F 24% 30.00 in 10.0 mi Variable 4.6 mph - N/A   Clear
11:53 AM 75.9 °F 37.0 °F 24% 30.00 in 10.0 mi Calm Calm - N/A   Partly Cloudy
12:53 PM 80.1 °F 37.0 °F 21% 30.00 in 10.0 mi WNW 6.9 mph - N/A   Clear
1:53 PM 81.0 °F 36.0 °F 20% 30.00 in 10.0 mi WSW 8.1 mph - N/A   Mostly Cloudy
2:53 PM 82.9 °F 39.0 °F 21% 30.00 in 10.0 mi SW 10.4 mph 19.6 mph N/A   Partly Cloudy
3:53 PM 82.9 °F 37.0 °F 19% 29.99 in 10.0 mi WSW 9.2 mph - N/A   Partly Cloudy
4:53 PM 82.9 °F 35.1 °F 18% 29.98 in 10.0 mi West 11.5 mph 18.4 mph N/A   Partly Cloudy
5:53 PM 82.9 °F 30.9 °F 15% 29.98 in 10.0 mi West 13.8 mph - N/A   Clear
6:53 PM 80.1 °F 35.1 °F 20% 29.99 in 10.0 mi West 15.0 mph - N/A   Clear
7:53 PM 75.0 °F 39.0 °F 27% 30.01 in 10.0 mi NW 13.8 mph - N/A   Clear
8:53 PM 72.0 °F 39.0 °F 30% 30.04 in 10.0 mi NW 10.4 mph 20.7 mph N/A   Clear
9:53 PM 71.1 °F 39.0 °F 31% 30.04 in 10.0 mi NW 15.0 mph 23.0 mph N/A   Clear
10:53 PM 69.1 °F 39.0 °F 33% 30.05 in 10.0 mi NW 17.3 mph - N/A   Clear
11:53 PM 66.9 °F 39.0 °F 36% 30.06 in 10.0 mi NW 17.3 mph - N/A   Clear